JBU1729 KJFK-KRSW

Flight info

Callsign JBU1729
Flight time 2h 33m
Altitude 36000
Route KJFK RBV Q430 COPES Q75 SLOJO Q103 CYNTA SHFTY6 KRSW
Aircraft A320/M-SDE2E3FGHIRWY/LB1

Departure

Time 2026-04-30 20:23
Airport John F. Kennedy International Airport (KJFK)

Arrival

Time 2026-04-30 22:56
Airport Southwest Florida International Airport (KRSW)
Time Latitude Longitude Altitude Speed Heading
2026-04-30 19:59 40.64636 -73.77305 21 ft 0 kts 181°
2026-04-30 20:10 40.64644 -73.77304 21 ft 3 kts 181°
2026-04-30 20:10 40.64663 -73.77304 26 ft 3 kts 181°
2026-04-30 20:10 40.64681 -73.77303 24 ft 3 kts 216°
2026-04-30 20:11 40.64689 -73.77288 25 ft 0 kts 273°
2026-04-30 20:12 40.64689 -73.77289 25 ft 1 kts 273°
2026-04-30 20:13 40.64693 -73.77308 24 ft 3 kts 292°
2026-04-30 20:13 40.64709 -73.77344 24 ft 6 kts 301°
2026-04-30 20:13 40.64735 -73.77402 22 ft 9 kts 300°
2026-04-30 20:13 40.64770 -73.77481 21 ft 11 kts 301°
2026-04-30 20:14 40.64808 -73.77564 21 ft 6 kts 300°
2026-04-30 20:14 40.64840 -73.77603 21 ft 5 kts 354°
2026-04-30 20:14 40.64871 -73.77578 23 ft 6 kts 38°
2026-04-30 20:14 40.64913 -73.77534 22 ft 9 kts 39°
2026-04-30 20:15 40.64954 -73.77490 21 ft 4 kts 39°
2026-04-30 20:15 40.64958 -73.77486 23 ft 0 kts 39°
2026-04-30 20:16 40.64967 -73.77476 20 ft 3 kts 39°
2026-04-30 20:16 40.64991 -73.77451 21 ft 6 kts 36°
2026-04-30 20:16 40.65031 -73.77428 22 ft 7 kts 18°
2026-04-30 20:17 40.65087 -73.77403 22 ft 10 kts 22°
2026-04-30 20:17 40.65134 -73.77363 22 ft 4 kts 54°
2026-04-30 20:17 40.65135 -73.77331 23 ft 4 kts 105°
2026-04-30 20:17 40.65116 -73.77285 21 ft 7 kts 123°
2026-04-30 20:18 40.65089 -73.77224 24 ft 9 kts 121°
2026-04-30 20:18 40.65052 -73.77144 21 ft 11 kts 121°
2026-04-30 20:18 40.65008 -73.77046 21 ft 14 kts 120°
2026-04-30 20:18 40.64956 -73.76930 21 ft 16 kts 121°
2026-04-30 20:19 40.64904 -73.76817 24 ft 15 kts 121°
2026-04-30 20:19 40.64871 -73.76741 22 ft 11 kts 111°
2026-04-30 20:19 40.64939 -73.76651 22 ft 13 kts 30°
2026-04-30 20:19 40.65021 -73.76586 22 ft 13 kts 31°
2026-04-30 20:20 40.65086 -73.76533 25 ft 2 kts 40°
2026-04-30 20:20 40.65100 -73.76506 23 ft 4 kts 68°
2026-04-30 20:20 40.65097 -73.76468 22 ft 0 kts 111°
2026-04-30 20:22 40.65093 -73.76456 22 ft 5 kts 112°
2026-04-30 20:22 40.65068 -73.76392 25 ft 11 kts 124°
2026-04-30 20:22 40.65039 -73.76351 25 ft 4 kts 159°
2026-04-30 20:22 40.65018 -73.76358 26 ft 1 kts 211°
2026-04-30 20:23 40.64848 -73.76495 24 ft 62 kts 211°
2026-04-30 20:23 40.64281 -73.76937 22 ft 125 kts 210°
2026-04-30 20:23 40.63415 -73.77611 381 ft 156 kts 212°
2026-04-30 20:23 40.62425 -73.78392 949 ft 175 kts 212°
2026-04-30 20:24 40.61335 -73.79245 1592 ft 192 kts 213°
2026-04-30 20:24 40.60105 -73.80231 2107 ft 218 kts 214°
2026-04-30 20:24 40.58783 -73.81354 2843 ft 233 kts 217°
2026-04-30 20:24 40.57451 -73.82648 3756 ft 240 kts 220°
2026-04-30 20:25 40.54832 -73.85361 5934 ft 235 kts 221°
2026-04-30 20:25 40.53643 -73.86753 7081 ft 222 kts 233°
2026-04-30 20:26 40.52158 -73.90100 8965 ft 218 kts 242°
2026-04-30 20:26 40.50619 -73.94318 9178 ft 282 kts 244°
2026-04-30 20:26 40.49384 -73.96222 10373 ft 277 kts 223°
2026-04-30 20:27 40.46853 -73.99763 12402 ft 270 kts 229°
2026-04-30 20:27 40.44630 -74.04011 13656 ft 282 kts 236°
2026-04-30 20:28 40.42262 -74.07968 15451 ft 275 kts 233°
2026-04-30 20:28 40.39816 -74.11854 16939 ft 278 kts 233°
2026-04-30 20:29 40.37531 -74.15963 18334 ft 280 kts 237°
2026-04-30 20:30 40.34252 -74.22385 20051 ft 286 kts 238°
2026-04-30 20:30 40.30970 -74.29015 21772 ft 292 kts 239°
2026-04-30 20:31 40.27690 -74.35854 23383 ft 300 kts 237°
2026-04-30 20:32 40.24711 -74.43025 24683 ft 305 kts 254°
2026-04-30 20:32 40.23773 -74.48482 25531 ft 310 kts 256°
2026-04-30 20:33 40.23345 -74.51264 25953 ft 312 kts 257°
2026-04-30 20:33 40.22647 -74.56919 26772 ft 318 kts 262°
2026-04-30 20:33 40.22515 -74.59821 27174 ft 321 kts 264°
2026-04-30 20:34 40.22372 -74.65672 27957 ft 326 kts 265°
2026-04-30 20:34 40.22101 -74.71666 28752 ft 329 kts 259°
2026-04-30 20:35 40.21751 -74.74634 29128 ft 331 kts 258°
2026-04-30 20:35 40.21341 -74.77602 29497 ft 333 kts 257°
2026-04-30 20:35 40.20449 -74.83589 30168 ft 337 kts 256°
2026-04-30 20:36 40.19994 -74.86576 30461 ft 340 kts 256°
2026-04-30 20:36 40.19528 -74.89613 30753 ft 342 kts 256°
2026-04-30 20:36 40.18584 -74.95764 31334 ft 347 kts 256°
2026-04-30 20:37 40.18109 -74.98865 31617 ft 349 kts 256°
2026-04-30 20:37 40.17631 -75.01992 31944 ft 352 kts 256°
2026-04-30 20:37 40.17312 -75.04076 32137 ft 353 kts 256°
2026-04-30 20:37 40.16665 -75.08300 32512 ft 357 kts 257°
2026-04-30 20:38 40.16337 -75.10414 32670 ft 358 kts 257°
2026-04-30 20:38 40.15842 -75.13610 32944 ft 360 kts 257°
2026-04-30 20:38 40.15343 -75.16836 33213 ft 362 kts 257°
2026-04-30 20:39 40.14342 -75.23318 33738 ft 366 kts 257°
2026-04-30 20:39 40.13835 -75.26606 33984 ft 369 kts 257°
2026-04-30 20:39 40.13327 -75.29897 34222 ft 370 kts 256°
2026-04-30 20:40 40.10872 -75.35758 34636 ft 374 kts 232°
2026-04-30 20:40 40.09170 -75.38332 34854 ft 376 kts 230°
2026-04-30 20:40 40.07407 -75.40867 35070 ft 378 kts 229°
2026-04-30 20:41 40.03786 -75.45917 35419 ft 384 kts 229°
2026-04-30 20:41 40.01950 -75.48456 35621 ft 385 kts 230°
2026-04-30 20:41 40.00191 -75.51114 35757 ft 388 kts 232°
2026-04-30 20:41 39.98500 -75.53830 35795 ft 393 kts 233°
2026-04-30 20:42 39.95064 -75.59511 35841 ft 405 kts 234°
2026-04-30 20:42 39.91561 -75.65382 35848 ft 417 kts 234°
2026-04-30 20:43 39.89777 -75.68388 35848 ft 423 kts 234°
2026-04-30 20:43 39.86138 -75.74537 35841 ft 434 kts 234°
2026-04-30 20:44 39.80571 -75.83956 35845 ft 437 kts 234°
2026-04-30 20:45 39.73205 -75.96383 35839 ft 433 kts 234°
2026-04-30 20:45 39.69538 -76.02581 35836 ft 431 kts 234°
2026-04-30 20:46 39.62262 -76.14891 35847 ft 430 kts 234°
2026-04-30 20:47 39.56747 -76.24143 35839 ft 433 kts 234°
2026-04-30 20:48 39.51242 -76.33363 35831 ft 430 kts 234°
2026-04-30 20:48 39.47577 -76.39508 35840 ft 431 kts 234°
2026-04-30 20:49 39.43910 -76.45660 35826 ft 432 kts 234°
2026-04-30 20:50 39.38287 -76.54753 35857 ft 435 kts 228°
2026-04-30 20:50 39.33748 -76.59915 35867 ft 438 kts 224°
2026-04-30 20:51 39.29022 -76.64869 35844 ft 438 kts 223°
2026-04-30 20:51 39.21880 -76.72224 35838 ft 437 kts 223°
2026-04-30 20:52 39.17114 -76.77109 35838 ft 438 kts 223°
2026-04-30 20:53 39.09952 -76.84454 35892 ft 438 kts 223°
2026-04-30 20:53 39.05184 -76.89328 35864 ft 438 kts 223°
2026-04-30 20:54 38.97974 -76.96584 35873 ft 439 kts 223°
2026-04-30 20:55 38.90784 -77.03806 35863 ft 439 kts 223°
2026-04-30 20:55 38.85977 -77.08636 35814 ft 438 kts 223°
2026-04-30 20:56 38.78777 -77.15829 35836 ft 437 kts 223°
2026-04-30 20:57 38.71558 -77.23036 35857 ft 438 kts 223°
2026-04-30 20:57 38.66734 -77.27829 35869 ft 438 kts 223°
2026-04-30 20:58 38.59638 -77.35047 35853 ft 431 kts 230°
2026-04-30 20:58 38.55655 -77.40733 35866 ft 429 kts 234°
2026-04-30 20:59 38.49942 -77.49550 35872 ft 429 kts 235°
2026-04-30 21:00 38.42135 -77.61022 35867 ft 430 kts 231°
2026-04-30 21:01 38.35778 -77.69101 35873 ft 430 kts 231°
2026-04-30 21:02 38.29376 -77.77141 35864 ft 431 kts 231°
2026-04-30 21:02 38.25108 -77.82494 35844 ft 430 kts 231°
2026-04-30 21:03 38.20833 -77.87757 35876 ft 426 kts 231°
2026-04-30 21:03 38.16575 -77.92955 35885 ft 428 kts 231°
2026-04-30 21:04 38.12272 -77.98201 35882 ft 430 kts 231°
2026-04-30 21:04 38.05789 -78.06053 35876 ft 428 kts 231°
2026-04-30 21:05 38.01433 -78.11184 35858 ft 431 kts 226°
2026-04-30 21:05 37.96509 -78.15639 35909 ft 435 kts 224°
2026-04-30 21:06 37.91613 -78.20144 35886 ft 434 kts 224°
2026-04-30 21:06 37.88923 -78.22025 35855 ft 449 kts 213°
2026-04-30 21:06 37.86003 -78.23483 35860 ft 453 kts 210°
2026-04-30 21:07 37.80011 -78.26099 35862 ft 457 kts 208°
2026-04-30 21:07 37.73967 -78.28616 35860 ft 458 kts 208°
2026-04-30 21:08 37.67944 -78.31097 35862 ft 457 kts 208°
2026-04-30 21:08 37.61896 -78.33578 35866 ft 457 kts 208°
2026-04-30 21:09 37.55822 -78.36018 35857 ft 458 kts 208°
2026-04-30 21:09 37.49734 -78.38413 35868 ft 458 kts 208°
2026-04-30 21:10 37.43849 -78.41131 35867 ft 449 kts 213°
2026-04-30 21:10 37.38059 -78.44115 35825 ft 451 kts 213°
2026-04-30 21:11 37.32217 -78.46959 35863 ft 449 kts 212°
2026-04-30 21:11 37.26374 -78.49759 35880 ft 451 kts 212°
2026-04-30 21:12 37.20500 -78.52569 35878 ft 452 kts 212°
2026-04-30 21:12 37.14621 -78.55375 35835 ft 450 kts 212°
2026-04-30 21:13 37.08755 -78.58082 35872 ft 448 kts 212°
2026-04-30 21:13 37.02888 -78.60764 35880 ft 450 kts 212°
2026-04-30 21:14 36.97000 -78.63458 35887 ft 451 kts 212°
2026-04-30 21:14 36.91119 -78.66142 35861 ft 449 kts 212°
2026-04-30 21:15 36.85230 -78.68777 35886 ft 449 kts 212°
2026-04-30 21:15 36.79353 -78.71438 35887 ft 447 kts 214°
2026-04-30 21:16 36.73727 -78.74483 35887 ft 442 kts 217°
2026-04-30 21:16 36.68149 -78.77671 35841 ft 440 kts 217°
2026-04-30 21:17 36.62586 -78.80837 35873 ft 440 kts 217°
2026-04-30 21:17 36.57013 -78.84015 35876 ft 442 kts 217°
2026-04-30 21:18 36.51426 -78.87206 35893 ft 441 kts 217°
2026-04-30 21:18 36.45871 -78.90372 35876 ft 439 kts 218°
2026-04-30 21:19 36.40301 -78.93523 35898 ft 441 kts 217°
2026-04-30 21:19 36.34711 -78.96687 35905 ft 441 kts 218°
2026-04-30 21:20 36.29130 -78.99844 35905 ft 440 kts 218°
2026-04-30 21:20 36.23598 -79.02969 35845 ft 440 kts 218°
2026-04-30 21:21 36.18006 -79.06108 35885 ft 442 kts 218°
2026-04-30 21:22 36.09511 -79.10693 35896 ft 444 kts 217°
2026-04-30 21:23 35.99074 -79.16191 35867 ft 444 kts 217°
2026-04-30 21:23 35.90548 -79.20651 35884 ft 447 kts 217°
2026-04-30 21:24 35.84836 -79.23634 35889 ft 445 kts 217°
2026-04-30 21:24 35.79137 -79.26607 35889 ft 444 kts 217°
2026-04-30 21:25 35.70586 -79.31096 35875 ft 445 kts 217°
2026-04-30 21:26 35.62037 -79.35620 35883 ft 446 kts 217°
2026-04-30 21:27 35.53537 -79.40118 35883 ft 444 kts 217°
2026-04-30 21:27 35.47837 -79.43138 35907 ft 445 kts 218°
2026-04-30 21:28 35.39579 -79.48073 35890 ft 437 kts 221°
2026-04-30 21:29 35.31459 -79.53183 35891 ft 438 kts 221°
2026-04-30 21:30 35.17990 -79.61820 35885 ft 440 kts 221°
2026-04-30 21:31 35.04504 -79.70518 35844 ft 438 kts 221°
2026-04-30 21:32 34.96400 -79.75809 35885 ft 442 kts 221°
2026-04-30 21:32 34.90759 -79.79002 35889 ft 449 kts 216°
2026-04-30 21:33 34.82071 -79.83334 35826 ft 451 kts 215°
2026-04-30 21:34 34.76270 -79.86190 35872 ft 453 kts 215°
2026-04-30 21:34 34.67442 -79.90556 35878 ft 454 kts 215°
2026-04-30 21:35 34.61643 -79.93421 35878 ft 452 kts 215°
2026-04-30 21:35 34.55816 -79.96299 35860 ft 453 kts 215°
2026-04-30 21:36 34.49959 -79.99201 35882 ft 456 kts 215°
2026-04-30 21:37 34.38220 -80.05032 35889 ft 454 kts 216°
2026-04-30 21:37 34.32369 -80.07936 35824 ft 455 kts 216°
2026-04-30 21:38 34.26497 -80.10873 35876 ft 458 kts 216°
2026-04-30 21:38 34.20597 -80.13844 35883 ft 459 kts 216°
2026-04-30 21:39 34.14712 -80.16805 35905 ft 456 kts 216°
2026-04-30 21:39 34.08885 -80.19721 35888 ft 457 kts 216°
2026-04-30 21:40 34.05956 -80.21209 35588 ft 455 kts 217°
2026-04-30 21:40 34.03147 -80.22892 35146 ft 446 kts 221°
2026-04-30 21:40 34.00436 -80.24659 34479 ft 440 kts 222°
2026-04-30 21:40 33.97767 -80.26443 33790 ft 435 kts 222°
2026-04-30 21:41 33.95148 -80.28208 33115 ft 428 kts 222°
2026-04-30 21:41 33.92576 -80.29952 32500 ft 420 kts 222°
2026-04-30 21:41 33.90047 -80.31675 31898 ft 413 kts 223°
2026-04-30 21:41 33.87574 -80.33372 31301 ft 406 kts 223°
2026-04-30 21:42 33.85150 -80.35039 30705 ft 399 kts 223°
2026-04-30 21:42 33.82742 -80.36716 30266 ft 403 kts 223°
2026-04-30 21:42 33.80321 -80.38427 30052 ft 401 kts 223°
2026-04-30 21:42 33.77940 -80.40110 29954 ft 394 kts 223°
2026-04-30 21:43 33.73087 -80.43225 29901 ft 400 kts 218°
2026-04-30 21:43 33.67991 -80.46077 29890 ft 415 kts 217°
2026-04-30 21:44 33.62609 -80.49079 29891 ft 433 kts 217°
2026-04-30 21:44 33.57108 -80.52202 29846 ft 447 kts 217°
2026-04-30 21:45 33.51420 -80.55515 29878 ft 461 kts 217°
2026-04-30 21:45 33.45579 -80.58944 29875 ft 470 kts 217°
2026-04-30 21:46 33.39766 -80.62345 29879 ft 461 kts 217°
2026-04-30 21:46 33.34004 -80.65701 29884 ft 462 kts 217°
2026-04-30 21:47 33.28230 -80.69102 29873 ft 464 kts 217°
2026-04-30 21:47 33.22437 -80.72540 29876 ft 463 kts 217°
2026-04-30 21:48 33.16676 -80.75959 29882 ft 463 kts 217°
2026-04-30 21:48 33.10912 -80.79384 29880 ft 464 kts 217°
2026-04-30 21:49 33.05167 -80.82786 29876 ft 465 kts 216°
2026-04-30 21:49 32.99220 -80.85901 29882 ft 468 kts 213°
2026-04-30 21:50 32.93191 -80.88889 29880 ft 470 kts 213°
2026-04-30 21:50 32.87136 -80.91862 29900 ft 471 kts 213°
2026-04-30 21:51 32.81071 -80.94817 29859 ft 471 kts 213°
2026-04-30 21:51 32.74983 -80.97845 29866 ft 477 kts 213°
2026-04-30 21:52 32.68872 -81.00902 29868 ft 474 kts 213°
2026-04-30 21:52 32.62793 -81.03942 29870 ft 475 kts 213°
2026-04-30 21:53 32.56736 -81.06976 29811 ft 475 kts 213°
2026-04-30 21:53 32.50576 -81.10041 29860 ft 484 kts 213°
2026-04-30 21:54 32.44358 -81.13134 29872 ft 483 kts 213°
2026-04-30 21:54 32.38172 -81.16194 29863 ft 481 kts 213°
2026-04-30 21:55 32.31984 -81.19260 29854 ft 483 kts 213°
2026-04-30 21:55 32.25799 -81.22341 29840 ft 482 kts 213°
2026-04-30 21:56 32.19605 -81.25440 29853 ft 484 kts 213°
2026-04-30 21:56 32.13413 -81.28543 29850 ft 483 kts 213°
2026-04-30 21:57 32.07230 -81.31639 29892 ft 483 kts 213°
2026-04-30 21:57 32.01055 -81.34746 29867 ft 480 kts 213°
2026-04-30 21:58 31.94925 -81.37862 29844 ft 480 kts 213°
2026-04-30 21:58 31.88797 -81.40990 29820 ft 480 kts 213°
2026-04-30 21:59 31.82665 -81.44128 29821 ft 480 kts 213°
2026-04-30 22:00 31.73539 -81.48845 29546 ft 476 kts 213°
2026-04-30 22:00 31.67523 -81.52023 28968 ft 470 kts 213°
2026-04-30 22:00 31.64562 -81.53591 28898 ft 465 kts 214°
2026-04-30 22:01 31.58653 -81.56728 28882 ft 468 kts 214°
2026-04-30 22:01 31.52710 -81.59900 28878 ft 469 kts 214°
2026-04-30 22:02 31.46793 -81.63085 28870 ft 469 kts 214°
2026-04-30 22:02 31.40859 -81.66308 28874 ft 470 kts 214°
2026-04-30 22:03 31.34954 -81.69523 28878 ft 466 kts 214°
2026-04-30 22:03 31.29106 -81.72710 28866 ft 468 kts 214°
2026-04-30 22:04 31.23201 -81.75936 28830 ft 467 kts 214°
2026-04-30 22:05 31.14342 -81.80828 28854 ft 469 kts 214°
2026-04-30 22:05 31.08452 -81.84084 28854 ft 468 kts 214°
2026-04-30 22:06 31.02559 -81.87344 28857 ft 469 kts 214°
2026-04-30 22:06 30.93714 -81.92267 28852 ft 470 kts 214°
2026-04-30 22:07 30.87747 -81.95408 28854 ft 464 kts 209°
2026-04-30 22:07 30.84819 -81.96634 28857 ft 442 kts 208°
2026-04-30 22:07 30.81931 -81.97764 28237 ft 438 kts 207°
2026-04-30 22:08 30.79041 -81.98875 27549 ft 435 kts 207°
2026-04-30 22:08 30.76189 -81.99959 27195 ft 429 kts 207°
2026-04-30 22:08 30.73362 -82.01028 27012 ft 426 kts 207°
2026-04-30 22:08 30.70550 -82.02093 26906 ft 425 kts 207°
2026-04-30 22:09 30.67803 -82.03326 26900 ft 423 kts 212°
2026-04-30 22:09 30.65111 -82.04739 26922 ft 425 kts 213°
2026-04-30 22:09 30.63307 -82.05728 26913 ft 425 kts 213°
2026-04-30 22:09 30.60646 -82.07212 26887 ft 422 kts 214°
2026-04-30 22:10 30.58018 -82.08691 26872 ft 420 kts 214°
2026-04-30 22:10 30.55275 -82.09951 26836 ft 434 kts 201°
2026-04-30 22:10 30.52207 -82.10270 26820 ft 453 kts 185°
2026-04-30 22:10 30.49038 -82.09958 26846 ft 457 kts 181°
2026-04-30 22:11 30.42732 -82.09280 26865 ft 453 kts 186°
2026-04-30 22:11 30.39583 -82.09157 26865 ft 452 kts 186°
2026-04-30 22:11 30.36469 -82.09074 26868 ft 452 kts 187°
2026-04-30 22:12 30.33327 -82.09006 26868 ft 452 kts 187°
2026-04-30 22:12 30.30181 -82.08944 26872 ft 451 kts 187°
2026-04-30 22:12 30.27038 -82.08885 26874 ft 451 kts 187°
2026-04-30 22:12 30.23901 -82.08827 26874 ft 451 kts 187°
2026-04-30 22:13 30.20767 -82.08770 26868 ft 451 kts 187°
2026-04-30 22:13 30.17618 -82.08715 26868 ft 452 kts 187°
2026-04-30 22:13 30.14478 -82.08663 26841 ft 451 kts 187°
2026-04-30 22:13 30.11345 -82.08631 26858 ft 450 kts 187°
2026-04-30 22:14 30.08211 -82.08606 26868 ft 449 kts 187°
2026-04-30 22:14 30.05082 -82.08585 26876 ft 450 kts 187°
2026-04-30 22:14 30.01945 -82.08497 26877 ft 455 kts 183°
2026-04-30 22:14 29.98780 -82.08144 26887 ft 458 kts 181°
2026-04-30 22:15 29.95608 -82.07693 26892 ft 458 kts 180°
2026-04-30 22:15 29.92456 -82.07208 26904 ft 458 kts 179°
2026-04-30 22:15 29.89295 -82.06703 26903 ft 459 kts 179°
2026-04-30 22:15 29.86144 -82.06082 26881 ft 460 kts 176°
2026-04-30 22:16 29.82996 -82.05398 26893 ft 460 kts 175°
2026-04-30 22:16 29.79863 -82.04691 26901 ft 459 kts 175°
2026-04-30 22:17 29.70445 -82.02530 26903 ft 461 kts 175°
2026-04-30 22:17 29.67305 -82.01807 26902 ft 461 kts 175°
2026-04-30 22:17 29.61063 -82.00369 26901 ft 459 kts 175°
2026-04-30 22:18 29.57927 -81.99646 26882 ft 459 kts 175°
2026-04-30 22:18 29.51682 -81.98245 26902 ft 454 kts 175°
2026-04-30 22:19 29.45459 -81.96866 26910 ft 456 kts 175°
2026-04-30 22:19 29.42329 -81.96175 26909 ft 457 kts 175°
2026-04-30 22:19 29.36088 -81.94798 26903 ft 456 kts 175°
2026-04-30 22:20 29.32981 -81.94112 26904 ft 455 kts 175°
2026-04-30 22:20 29.26748 -81.92745 26895 ft 456 kts 175°
2026-04-30 22:20 29.23670 -81.92081 26901 ft 456 kts 175°
2026-04-30 22:21 29.20549 -81.91411 26908 ft 457 kts 175°
2026-04-30 22:21 29.17423 -81.90742 26910 ft 456 kts 175°
2026-04-30 22:21 29.14303 -81.90074 26910 ft 456 kts 175°
2026-04-30 22:21 29.11180 -81.89405 26911 ft 455 kts 175°
2026-04-30 22:22 29.08072 -81.88739 26910 ft 456 kts 175°
2026-04-30 22:22 29.04947 -81.88070 26909 ft 456 kts 175°
2026-04-30 22:22 29.01830 -81.87403 26909 ft 457 kts 175°
2026-04-30 22:22 28.98700 -81.86735 26902 ft 457 kts 175°
2026-04-30 22:23 28.95570 -81.86068 26908 ft 458 kts 175°
2026-04-30 22:23 28.92434 -81.85402 26912 ft 459 kts 175°
2026-04-30 22:23 28.89287 -81.84735 26912 ft 459 kts 175°
2026-04-30 22:23 28.86149 -81.84073 26915 ft 458 kts 176°
2026-04-30 22:24 28.83030 -81.83574 26912 ft 445 kts 179°
2026-04-30 22:24 28.79998 -81.83203 26913 ft 436 kts 180°
2026-04-30 22:24 28.76966 -81.82872 26915 ft 436 kts 181°
2026-04-30 22:24 28.73935 -81.82600 26915 ft 437 kts 183°
2026-04-30 22:25 28.70900 -81.82454 26890 ft 438 kts 184°
2026-04-30 22:25 28.67889 -81.82366 26904 ft 438 kts 185°
2026-04-30 22:25 28.64836 -81.82305 26914 ft 439 kts 185°
2026-04-30 22:25 28.61747 -81.82228 26905 ft 441 kts 181°
2026-04-30 22:26 28.55752 -81.80512 26132 ft 447 kts 167°
2026-04-30 22:26 28.52817 -81.79361 25459 ft 445 kts 166°
2026-04-30 22:26 28.49918 -81.78180 24833 ft 441 kts 166°
2026-04-30 22:27 28.47052 -81.76989 24227 ft 437 kts 165°
2026-04-30 22:27 28.44215 -81.75793 23622 ft 433 kts 165°
2026-04-30 22:27 28.38618 -81.73428 22273 ft 424 kts 165°
2026-04-30 22:28 28.33140 -81.71160 21028 ft 414 kts 166°
2026-04-30 22:28 28.30387 -81.70288 20423 ft 405 kts 172°
2026-04-30 22:29 28.22259 -81.68355 18668 ft 392 kts 174°
2026-04-30 22:29 28.19587 -81.67770 18083 ft 388 kts 174°
2026-04-30 22:30 28.09082 -81.66823 17018 ft 370 kts 193°
2026-04-30 22:31 28.01457 -81.68227 16998 ft 369 kts 195°
2026-04-30 22:32 27.93891 -81.69727 16999 ft 370 kts 195°
2026-04-30 22:32 27.88825 -81.70738 16999 ft 369 kts 195°
2026-04-30 22:33 27.81215 -81.72257 16982 ft 370 kts 195°
2026-04-30 22:33 27.76150 -81.73355 16868 ft 369 kts 197°
2026-04-30 22:34 27.68524 -81.73745 16041 ft 372 kts 165°
2026-04-30 22:35 27.63861 -81.72046 15998 ft 338 kts 171°
2026-04-30 22:36 27.54617 -81.69841 16005 ft 338 kts 175°
2026-04-30 22:36 27.52291 -81.69425 15995 ft 338 kts 176°
2026-04-30 22:37 27.45581 -81.66810 15644 ft 343 kts 162°
2026-04-30 22:37 27.43367 -81.65817 15183 ft 340 kts 163°
2026-04-30 22:37 27.38987 -81.63907 14325 ft 335 kts 163°
2026-04-30 22:38 27.34671 -81.62049 13463 ft 329 kts 163°
2026-04-30 22:38 27.30427 -81.60236 12551 ft 324 kts 163°
2026-04-30 22:39 27.28322 -81.59341 12105 ft 321 kts 163°
2026-04-30 22:39 27.22109 -81.56702 10770 ft 315 kts 163°
2026-04-30 22:40 27.15983 -81.54166 10069 ft 309 kts 163°
2026-04-30 22:41 27.09993 -81.51706 9992 ft 294 kts 163°
2026-04-30 22:41 27.06367 -81.50198 9981 ft 262 kts 163°
2026-04-30 22:42 26.99487 -81.47320 9053 ft 265 kts 163°
2026-04-30 22:43 26.96040 -81.45916 8177 ft 258 kts 163°
2026-04-30 22:43 26.92852 -81.44439 7753 ft 238 kts 158°
2026-04-30 22:44 26.89963 -81.42923 7074 ft 223 kts 157°
2026-04-30 22:45 26.84255 -81.41332 5241 ft 205 kts 188°
2026-04-30 22:45 26.81528 -81.42086 4327 ft 199 kts 198°
2026-04-30 22:46 26.79154 -81.43472 3443 ft 190 kts 221°
2026-04-30 22:47 26.75477 -81.46777 2990 ft 159 kts 223°
2026-04-30 22:47 26.73763 -81.48390 2965 ft 161 kts 227°
2026-04-30 22:48 26.72246 -81.50204 2974 ft 163 kts 231°
2026-04-30 22:49 26.69994 -81.52885 2995 ft 147 kts 227°
2026-04-30 22:49 26.67615 -81.55214 2974 ft 149 kts 225°
2026-04-30 22:50 26.64571 -81.58555 2455 ft 160 kts 236°
2026-04-30 22:51 26.63349 -81.60666 1763 ft 160 kts 239°
2026-04-30 22:51 26.62084 -81.62576 1545 ft 150 kts 232°
2026-04-30 22:52 26.61390 -81.63440 1512 ft 147 kts 233°
2026-04-30 22:52 26.60254 -81.65333 1483 ft 137 kts 240°
2026-04-30 22:53 26.59409 -81.66699 1494 ft 119 kts 233°
2026-04-30 22:53 26.58285 -81.68119 1433 ft 126 kts 237°
2026-04-30 22:53 26.57816 -81.68917 1196 ft 128 kts 241°
2026-04-30 22:54 26.56801 -81.70609 918 ft 131 kts 234°
2026-04-30 22:55 26.55245 -81.73037 322 ft 129 kts 232°
2026-04-30 22:55 26.54253 -81.74539 43 ft 104 kts 236°
2026-04-30 22:56 26.53633 -81.75499 36 ft 54 kts 235°
2026-04-30 22:56 26.53242 -81.76094 35 ft 14 kts 234°
2026-04-30 22:57 26.53120 -81.76090 38 ft 7 kts 141°
2026-04-30 22:57 26.53117 -81.76087 38 ft 0 kts 141°
2026-04-30 22:59 26.53092 -81.76068 39 ft 7 kts 144°
2026-04-30 22:59 26.52893 -81.75908 41 ft 0 kts 144°